Weather History for KLOT - December, 2013

Change the Weather History Date:

Monday, December 16, 2013

  Actual Average Record
Temperature  
Mean Temperature 14 °F 27 °F  
Max Temperature 21 °F 34 °F 56 °F (2006)
Min Temperature 6 °F 20 °F 5 °F (2009)
Degree Days  
Heating Degree Days 51 38  
Month to date heating degree days 697 568  
Since 1 July heating degree days 2019 1787  
Cooling Degree Days 0 0  
Month to date cooling degree days 0 0  
Year to date cooling degree days 950 862  
Moisture  
Dew Point 11 °F    
Average Humidity 81    
Maximum Humidity 96    
Minimum Humidity 67    
Precipitation  
Precipitation 0.04 in 0.07 in 0.34 in (1994)
Month to date precipitation 0.63 1.18  
Year to date precipitation 39.98 39.00  
Snow  
Snow 1.20 in 0.40 in 3.10 in (2008)
Month to date snowfall 8.6 4.2  
Since 1 July snowfall 9.5 5.1  
Snow Depth 7.00 in    
Sea Level Pressure  
Sea Level Pressure 30.07 in    
Wind  
Wind Speed 4 mph (ESE)    
Max Wind Speed 13 mph    
Max Gust Speed -    
Visibility 7 miles    
Events Rain , Snow    
T = Trace of Precipitation, MM = Missing Value Source: NWS Daily Summary

Daily Weather History Graph

Daily Weather History Graph

Search for Another Location

Airport or City:

Trip Planner

Search our weather history database for the weather conditions in past years. The results will help you decide how hot, cold, wet, or windy it might be!

Date:

Astronomy

Dec. 16, 2013 Rise Set
Actual Time 7:12 AM CST 4:23 PM CST
Civil Twilight 6:41 AM CST 4:54 PM CST
Nautical Twilight 6:06 AM CST 5:29 PM CST
Astronomical Twilight 5:32 AM CST 6:03 PM CST
Moon 4:14 PM CST (12/16) 6:20 AM CST (12/16)
Length of Visible Light 10h 13m
Length of Day
9h 10m
Full, 100% of the Moon is Illuminated
Dec 16
Full
Dec 17
Full
Dec 25
Last Quarter
Jan 1
New
Jan 7
First Quarter

Hourly Weather History & Observations

Time (CST) Temp. Windchill Dew Point Humidity Pressure Visibility Wind Dir Wind Speed Gust Speed Precip Events Conditions
12:15 AM 12.7 °F 5.0 °F 4.8 °F 71% 30.12 in 10.0 mi NNW 4.6 mph - N/A   Overcast
12:35 AM 12.4 °F 3.1 °F 5.0 °F 72% 30.11 in 3.0 mi North 5.8 mph - N/A Snow Light Snow
12:55 AM 12.0 °F 4.1 °F 6.4 °F 78% 30.10 in 2.0 mi North 4.6 mph - N/A Snow Light Snow
1:15 AM 11.8 °F 3.9 °F 6.8 °F 80% 30.10 in 2.5 mi NNW 4.6 mph - N/A Snow Light Snow
1:35 AM 11.7 °F 5.5 °F 7.3 °F 83% 30.10 in 1.8 mi North 3.5 mph - N/A Snow Light Snow
1:55 AM 11.5 °F 5.3 °F 7.7 °F 85% 30.11 in 1.8 mi NNE 3.5 mph - N/A Snow Light Snow
2:15 AM 11.7 °F 2.3 °F 7.7 °F 84% 30.11 in 2.5 mi NNE 5.8 mph - N/A Snow Light Snow
2:35 AM 11.7 °F 2.3 °F 7.7 °F 84% 30.11 in 5.0 mi NNE 5.8 mph - N/A Snow Light Snow
2:55 AM 11.7 °F 2.3 °F 7.7 °F 84% 30.11 in 5.0 mi NE 5.8 mph - N/A Snow Light Snow
3:15 AM 11.1 °F 3.1 °F 6.6 °F 82% 30.10 in 10.0 mi NNE 4.6 mph - N/A Snow Light Snow
3:35 AM 11.1 °F 1.7 °F 5.9 °F 80% 30.10 in 10.0 mi NNE 5.8 mph - N/A   Mostly Cloudy
4:15 AM 9.7 °F - 5.5 °F 83% 30.11 in 5.0 mi Calm Calm - N/A Snow Light Snow
4:35 AM 9.7 °F - 6.1 °F 85% 30.10 in 7.0 mi Calm Calm - N/A Snow Light Snow
4:55 AM 9.5 °F - 6.3 °F 87% 30.10 in 10.0 mi Calm Calm - N/A   Scattered Clouds
5:15 AM 6.1 °F - 2.5 °F 85% 30.11 in 10.0 mi Calm Calm - N/A   Overcast
5:35 AM 8.6 °F 2.0 °F 5.2 °F 86% 30.11 in 10.0 mi NE 3.5 mph - N/A   Overcast
5:55 AM 10.8 °F - 7.3 °F 86% 30.10 in 10.0 mi Calm Calm - N/A   Overcast
6:15 AM 11.3 °F 5.1 °F 7.3 °F 84% 30.10 in 10.0 mi East 3.5 mph - N/A   Overcast
6:35 AM 11.5 °F 5.3 °F 6.8 °F 81% 30.10 in 10.0 mi SE 3.5 mph - N/A   Overcast
6:55 AM 11.7 °F 5.5 °F 5.5 °F 76% 30.10 in 10.0 mi ESE 3.5 mph - N/A   Overcast
7:15 AM 11.8 °F 5.7 °F 4.6 °F 73% 30.11 in 10.0 mi East 3.5 mph - N/A   Overcast
7:35 AM 11.8 °F - 4.1 °F 71% 30.12 in 10.0 mi Calm Calm - N/A   Overcast
7:55 AM 12.0 °F - 4.3 °F 71% 30.12 in 10.0 mi Calm Calm - N/A   Overcast
8:15 AM 12.4 °F - 4.5 °F 71% 30.12 in 10.0 mi Calm Calm - N/A   Overcast
8:35 AM 12.7 °F 6.7 °F 5.0 °F 71% 30.13 in 10.0 mi NE 3.5 mph - N/A   Overcast
8:55 AM 13.1 °F 7.1 °F 5.7 °F 72% 30.13 in 10.0 mi ENE 3.5 mph - N/A   Overcast
9:15 AM 14.0 °F 8.2 °F 6.6 °F 72% 30.13 in 10.0 mi East 3.5 mph - N/A   Overcast
9:35 AM 14.5 °F 7.1 °F 7.2 °F 73% 30.12 in 10.0 mi SSE 4.6 mph - N/A   Overcast
9:55 AM 15.1 °F 9.4 °F 7.9 °F 73% 30.12 in 10.0 mi SSE 3.5 mph - N/A   Overcast
10:15 AM 16.2 °F 9.0 °F 9.1 °F 74% 30.12 in 10.0 mi ESE 4.6 mph - N/A   Overcast
10:35 AM 17.2 °F 10.2 °F 9.5 °F 72% 30.12 in 10.0 mi ESE 4.6 mph - N/A   Overcast
10:55 AM 18.0 °F 12.7 °F 10.0 °F 71% 30.12 in 10.0 mi ESE 3.5 mph - N/A   Overcast
11:15 AM 18.1 °F - 9.7 °F 70% 30.11 in 10.0 mi Calm Calm - N/A   Overcast
11:35 AM 18.3 °F - 9.5 °F 68% 30.10 in 10.0 mi Calm Calm - N/A   Mostly Cloudy
11:55 AM 19.4 °F 14.3 °F 10.4 °F 68% 30.08 in 10.0 mi ESE 3.5 mph - N/A   Overcast
12:15 PM 20.3 °F 15.4 °F 10.8 °F 67% 30.06 in 10.0 mi ESE 3.5 mph - N/A   Mostly Cloudy
12:35 PM 19.9 °F 8.6 °F 10.6 °F 67% 30.04 in 10.0 mi SE 10.4 mph - N/A   Mostly Cloudy
12:55 PM 19.9 °F 10.1 °F 10.8 °F 68% 30.03 in 10.0 mi SE 8.1 mph - N/A   Overcast
1:15 PM 20.3 °F 9.8 °F 11.1 °F 68% 30.02 in 10.0 mi SSE 9.2 mph - N/A   Overcast
1:35 PM 20.3 °F 9.8 °F 11.7 °F 69% 30.02 in 10.0 mi South 9.2 mph - N/A   Overcast
1:55 PM 20.1 °F 10.3 °F 12.4 °F 72% 30.01 in 10.0 mi South 8.1 mph - N/A   Overcast
2:15 PM 20.1 °F 8.8 °F 12.2 °F 71% 30.01 in 10.0 mi South 10.4 mph - N/A   Overcast
2:35 PM 19.8 °F 9.1 °F 12.4 °F 73% 30.01 in 7.0 mi SSE 9.2 mph - N/A Snow Light Snow
2:55 PM 19.0 °F 10.0 °F 13.5 °F 79% 30.02 in 1.8 mi South 6.9 mph - N/A Snow Light Snow
3:15 PM 18.5 °F 10.4 °F 14.7 °F 85% 30.02 in 0.8 mi South 5.8 mph - N/A Snow Light Snow
3:35 PM 18.5 °F 11.7 °F 15.1 °F 86% 30.02 in 0.8 mi SSE 4.6 mph - N/A Snow Light Snow
3:55 PM 18.3 °F 13.1 °F 15.3 °F 88% 30.02 in 0.8 mi South 3.5 mph - N/A Snow Light Snow
4:15 PM 18.5 °F - 15.4 °F 88% 30.02 in 3.0 mi Calm Calm - N/A Snow Light Snow
4:35 PM 18.5 °F - 15.1 °F 86% 30.03 in 7.0 mi Calm Calm - N/A Snow Light Snow
4:55 PM 18.5 °F 13.3 °F 15.4 °F 88% 30.01 in 10.0 mi ESE 3.5 mph - N/A   Overcast
5:15 PM 18.5 °F - 14.9 °F 86% 30.03 in 10.0 mi Calm Calm - N/A   Overcast
5:35 PM 18.5 °F - 15.3 °F 87% 30.04 in 7.0 mi Calm Calm - N/A Snow Light Snow
5:55 PM 18.5 °F - 15.6 °F 89% 30.04 in 5.0 mi Calm Calm - N/A Snow Light Snow
6:15 PM 18.7 °F - 15.6 °F 88% 30.04 in 7.0 mi Calm Calm - N/A Snow Light Snow
6:35 PM 18.9 °F - 15.8 °F 88% 30.04 in 7.0 mi Calm Calm - N/A Snow Light Snow
6:55 PM 19.0 °F 13.9 °F 15.8 °F 87% 30.04 in 7.0 mi West 3.5 mph - N/A   Overcast
7:15 PM 19.0 °F - 15.8 °F 87% 30.03 in 7.0 mi Calm Calm - N/A Rain Light Freezing Rain
7:35 PM 19.0 °F - 16.0 °F 88% 30.04 in 7.0 mi Calm Calm - N/A Snow Light Snow
7:55 PM 18.9 °F 12.1 °F 16.3 °F 90% 30.04 in 5.0 mi West 4.6 mph - N/A Snow Light Snow
8:15 PM 18.7 °F 10.6 °F 16.3 °F 91% 30.02 in 7.0 mi WSW 5.8 mph - N/A   Overcast
8:35 PM 18.7 °F 11.9 °F 16.7 °F 92% 30.02 in 5.0 mi SW 4.6 mph - N/A   Overcast
8:55 PM 18.5 °F 10.4 °F 17.4 °F 96% 30.03 in 5.0 mi West 5.8 mph - N/A   Overcast
9:15 PM 18.5 °F 7.5 °F 17.6 °F 96% 30.05 in 4.0 mi West 9.2 mph - N/A   Overcast
9:35 PM 18.5 °F 7.5 °F 17.6 °F 96% 30.05 in 2.5 mi West 9.2 mph - N/A   Overcast
9:55 PM 18.5 °F 6.8 °F 17.6 °F 96% 30.06 in 2.5 mi West 10.4 mph - N/A   Overcast
10:15 PM 18.5 °F 5.5 °F 17.4 °F 96% 30.05 in 4.0 mi WNW 12.7 mph - N/A   Overcast
10:35 PM 18.1 °F 6.3 °F 16.9 °F 95% 30.05 in 5.0 mi WNW 10.4 mph - N/A   Overcast
10:55 PM 18.1 °F 5.6 °F 16.5 °F 93% 30.05 in 5.0 mi WNW 11.5 mph - N/A   Overcast
11:55 PM 16.2 °F 5.5 °F 14.0 °F 91% 30.03 in 7.0 mi West 8.1 mph - N/A   Mostly Cloudy